Location: Albany
(35.0170°S, 117.8920°E)
Time: 11:38:34
(UTC+08:00)

S-56A Canister/Altair - Pass Details

Date: 22 January 2021
Orbit: 631 x 2501 km, 38.9° (Epoch: 02 March)

Event Time Altitude Azimuth Distance (km) Brightness Sun altitude
Rises 14:47:13 0° 294° (WNW) 5,764 12.5 54.1°
Reaches altitude 10° 14:50:44 10° 294° (WNW) 4,914 12.4 53.4°
Maximum altitude 15:05:35 88° 21° (NNE) 2,508 11.1 50.5°
Drops below altitude 10° 15:20:01 10° 108° (ESE) 4,786 11.3 47.6°
Sets 15:23:23 0° 108° (ESE) 5,613 11.5 46.9°
